TimeCDT,TemperatureF,Dew PointF,Humidity,Sea Level PressureIn,VisibilityMPH,Wind Direction,Wind SpeedMPH,Gust SpeedMPH,PrecipitationIn,Events,Conditions,WindDirDegrees,DateUTC
12:15 AM,42.4,40.5,93,30.36,10.0,ESE,3.5,-,N/A,,Clear,110,2013-09-17 05:15:00
12:35 AM,42.3,40.3,93,30.35,10.0,East,3.5,-,N/A,,Clear,100,2013-09-17 05:35:00
12:55 AM,41.9,39.7,92,30.36,10.0,Calm,Calm,-,N/A,,Clear,0,2013-09-17 05:55:00
1:15 AM,41.4,38.8,91,30.36,10.0,Calm,Calm,-,N/A,,Clear,0,2013-09-17 06:15:00
1:35 AM,40.8,38.7,92,30.36,10.0,Calm,Calm,-,N/A,,Clear,0,2013-09-17 06:35:00
1:55 AM,39.0,37.2,93,30.35,10.0,Calm,Calm,-,N/A,,Clear,0,2013-09-17 06:55:00
2:15 AM,38.3,36.9,95,30.35,10.0,Calm,Calm,-,N/A,,Clear,0,2013-09-17 07:15:00
2:35 AM,38.8,36.9,93,30.35,10.0,Calm,Calm,-,N/A,,Clear,0,2013-09-17 07:35:00
2:55 AM,36.0,34.9,96,30.35,10.0,Calm,Calm,-,N/A,,Clear,0,2013-09-17 07:55:00
3:15 AM,34.9,33.8,96,30.35,10.0,Calm,Calm,-,N/A,,Clear,0,2013-09-17 08:15:00
3:35 AM,37.0,36.1,97,30.35,10.0,Calm,Calm,-,N/A,,Clear,0,2013-09-17 08:35:00
3:55 AM,34.9,33.8,96,30.35,10.0,Calm,Calm,-,N/A,,Clear,0,2013-09-17 08:55:00
4:15 AM,35.6,34.2,94,30.35,10.0,Calm,Calm,-,N/A,,Clear,0,2013-09-17 09:15:00
4:35 AM,33.6,32.7,96,30.34,10.0,NE,3.5,-,N/A,,Scattered Clouds,40,2013-09-17 09:35:00
4:55 AM,32.2,31.8,99,30.34,10.0,Calm,Calm,-,N/A,,Scattered Clouds,0,2013-09-17 09:55:00
5:15 AM,32.0,31.6,99,30.34,10.0,Calm,Calm,-,N/A,,Clear,0,2013-09-17 10:15:00
5:35 AM,32.0,31.1,96,30.34,10.0,Calm,Calm,-,N/A,,Clear,0,2013-09-17 10:35:00
5:55 AM,32.0,31.6,99,30.33,10.0,Calm,Calm,-,N/A,,Clear,0,2013-09-17 10:55:00
6:15 AM,32.0,30.9,96,30.33,10.0,Calm,Calm,-,N/A,,Clear,0,2013-09-17 11:15:00
6:35 AM,31.5,30.6,96,30.33,10.0,Calm,Calm,-,N/A,,Clear,0,2013-09-17 11:35:00
6:55 AM,31.1,30.2,96,30.33,10.0,Calm,Calm,-,N/A,,Clear,0,2013-09-17 11:55:00
7:15 AM,32.7,32.0,97,30.34,10.0,Calm,Calm,-,N/A,,Scattered Clouds,0,2013-09-17 12:15:00
7:35 AM,34.3,32.9,94,30.34,10.0,Calm,Calm,-,N/A,,Mostly Cloudy,0,2013-09-17 12:35:00
7:55 AM,39.7,38.8,97,30.33,10.0,Calm,Calm,-,N/A,,Mostly Cloudy,0,2013-09-17 12:55:00
8:15 AM,42.1,41.0,96,30.33,10.0,Calm,Calm,-,N/A,,Scattered Clouds,0,2013-09-17 13:15:00
8:35 AM,45.1,43.2,93,30.33,10.0,Calm,Calm,-,N/A,,Mostly Cloudy,0,2013-09-17 13:35:00
8:55 AM,47.3,44.4,90,30.33,10.0,East,3.5,-,N/A,,Mostly Cloudy,100,2013-09-17 13:55:00
9:15 AM,49.3,45.7,87,30.33,10.0,ESE,3.5,-,N/A,,Scattered Clouds,120,2013-09-17 14:15:00
9:35 AM,51.4,46.4,83,30.32,10.0,SE,5.8,-,N/A,,Mostly Cloudy,140,2013-09-17 14:35:00
9:55 AM,54.5,47.5,77,30.32,10.0,SE,9.2,-,N/A,,Overcast,140,2013-09-17 14:55:00
10:15 AM,55.4,47.5,75,30.32,10.0,SE,6.9,-,N/A,,Overcast,140,2013-09-17 15:15:00
10:35 AM,56.3,47.5,72,30.31,10.0,SSE,10.4,16.1,N/A,,Overcast,150,2013-09-17 15:35:00
10:55 AM,57.7,47.5,69,30.30,10.0,South,9.2,18.4,N/A,,Overcast,180,2013-09-17 15:55:00
11:15 AM,58.1,47.5,68,30.29,10.0,SSE,10.4,-,N/A,,Overcast,160,2013-09-17 16:15:00
11:35 AM,59.2,46.6,63,30.29,10.0,South,10.4,17.3,N/A,,Overcast,180,2013-09-17 16:35:00
11:55 AM,60.8,47.5,62,30.28,10.0,SSE,9.2,17.3,N/A,,Mostly Cloudy,160,2013-09-17 16:55:00
12:15 PM,60.6,47.5,62,30.27,10.0,SE,9.2,16.1,N/A,,Scattered Clouds,140,2013-09-17 17:15:00
12:35 PM,61.2,47.1,60,30.26,10.0,SSE,8.1,16.1,N/A,,Clear,160,2013-09-17 17:35:00
12:55 PM,62.6,46.9,57,30.25,10.0,South,11.5,17.3,N/A,,Clear,170,2013-09-17 17:55:00
1:15 PM,62.4,46.9,57,30.24,10.0,SSE,9.2,-,N/A,,Clear,150,2013-09-17 18:15:00
1:35 PM,63.1,47.7,57,30.22,10.0,SE,9.2,18.4,N/A,,Scattered Clouds,130,2013-09-17 18:35:00
1:55 PM,63.3,47.8,57,30.21,10.0,SSE,6.9,16.1,N/A,,Scattered Clouds,160,2013-09-17 18:55:00
2:15 PM,63.5,46.6,54,30.21,10.0,South,10.4,-,N/A,,Scattered Clouds,170,2013-09-17 19:15:00
2:35 PM,64.6,45.7,50,30.20,10.0,South,13.8,17.3,N/A,,Clear,190,2013-09-17 19:35:00
2:55 PM,64.2,46.2,52,30.20,10.0,South,9.2,17.3,N/A,,Clear,170,2013-09-17 19:55:00
3:15 PM,64.9,47.8,54,30.19,10.0,South,12.7,16.1,N/A,,Clear,180,2013-09-17 20:15:00
3:35 PM,63.5,47.3,56,30.18,10.0,South,11.5,16.1,N/A,,Clear,170,2013-09-17 20:35:00
3:55 PM,62.8,48.6,60,30.18,10.0,South,8.1,18.4,N/A,,Scattered Clouds,180,2013-09-17 20:55:00
4:15 PM,62.4,47.8,59,30.17,10.0,South,9.2,-,N/A,,Scattered Clouds,170,2013-09-17 21:15:00
4:35 PM,61.9,48.7,62,30.16,10.0,SSE,10.4,-,N/A,,Scattered Clouds,150,2013-09-17 21:35:00
4:55 PM,61.9,49.1,63,30.16,10.0,SE,8.1,-,N/A,,Scattered Clouds,140,2013-09-17 21:55:00
5:15 PM,61.7,49.5,64,30.15,10.0,SE,6.9,-,N/A,,Clear,140,2013-09-17 22:15:00
5:35 PM,61.7,48.7,62,30.15,10.0,SSE,10.4,-,N/A,,Clear,150,2013-09-17 22:35:00
5:55 PM,61.2,49.1,65,30.14,10.0,SSE,6.9,-,N/A,,Clear,150,2013-09-17 22:55:00
6:15 PM,61.2,48.4,63,30.14,10.0,SSE,8.1,-,N/A,,Clear,160,2013-09-17 23:15:00
6:35 PM,60.6,48.7,65,30.13,10.0,SE,5.8,-,N/A,,Scattered Clouds,140,2013-09-17 23:35:00
6:55 PM,59.9,49.1,67,30.13,10.0,SE,5.8,-,N/A,,Scattered Clouds,140,2013-09-17 23:55:00
7:15 PM,59.4,49.1,69,30.12,10.0,SSE,5.8,-,N/A,,Clear,150,2013-09-18 00:15:00
7:35 PM,59.0,49.3,70,30.12,10.0,SSE,4.6,-,N/A,,Clear,150,2013-09-18 00:35:00
7:55 PM,58.5,49.5,72,30.12,10.0,SE,4.6,-,N/A,,Clear,130,2013-09-18 00:55:00
8:15 PM,58.1,50.0,74,30.12,10.0,SE,3.5,-,N/A,Rain,Light Rain,130,2013-09-18 01:15:00
8:35 PM,57.4,50.5,78,30.12,10.0,SE,3.5,-,N/A,,Mostly Cloudy,140,2013-09-18 01:35:00
8:55 PM,57.2,50.9,79,30.12,10.0,SSE,4.6,-,N/A,Rain,Light Rain,150,2013-09-18 01:55:00
9:15 PM,56.5,51.8,84,30.11,10.0,SE,4.6,-,N/A,Rain,Light Rain,130,2013-09-18 02:15:00
9:35 PM,56.3,52.0,85,30.11,10.0,Calm,Calm,-,N/A,,Overcast,0,2013-09-18 02:35:00
9:55 PM,56.3,52.0,85,30.11,10.0,SSE,3.5,-,N/A,Rain,Light Rain,160,2013-09-18 02:55:00
10:15 PM,56.3,52.2,86,30.12,10.0,SSE,4.6,-,N/A,,Drizzle,160,2013-09-18 03:15:00
10:35 PM,55.6,52.7,90,30.11,7.0,SE,3.5,-,N/A,Rain,Light Rain,130,2013-09-18 03:35:00
10:55 PM,55.4,52.7,91,30.11,10.0,SE,3.5,-,N/A,,Overcast,130,2013-09-18 03:55:00
11:15 PM,55.0,52.9,92,30.10,10.0,SE,4.6,-,N/A,,Overcast,140,2013-09-18 04:15:00
11:35 PM,54.7,52.9,94,30.09,7.0,ESE,4.6,-,0.01,Rain,Light Rain,110,2013-09-18 04:35:00
11:55 PM,54.7,52.9,94,30.09,7.0,ESE,5.8,-,0.01,,Drizzle,120,2013-09-18 04:55:00